sat.trackr.live / text

‹ back to catalog

STARLINK-36634

NORAD 67593 · 2026-018E

PAYLOAD ACTIVE UNKNOWN

§ Identity

Operator
Country
US
Launch date
2026-01-29
Launch site
AFWTR
Launch vehicle
Mass (kg)
RCS (m²)

Purposes: comms

External: N2YO · Heavens-Above · Gunter

§ Orbital elements

Epoch: 2026-09-19T09:46:27.937056Z

Period
93.91 min
Inclination
97.2890°
Eccentricity
0.0001257
Mean motion
15.33450295 rev/d
Perigee alt
464.7 km
Apogee alt
466.4 km
Semi-major
6,843.7 km
B*
6.0042e-4
RAAN
325.8928°
Arg perigee
107.4748°
Mean anomaly
252.6632°
Rev number
3,702

§ Raw data

STARLINK-366341 67593U 26018E   26262.40726779  .00019362  00000+0  60042-3 0  99922 67593  97.2890 325.8928 0001257 107.4748 252.6632 15.33450295 37025

JSON: /api/v1/satellites/67593 · /tle

For live sub-satellite position, see the globe view (requires WebGL).

§ Visibility from observer

Set your observer location to see the next 7 days of passes ≥ 10°. The values pass through the URL so the page stays shareable.

No JS? Fill the form by hand. The geolocation button needs JavaScript.